EHI
6 2 0 0 0 0 0 0 0 0 0 2 6 8 9 7 4 2 4 24 60 70 53 48 50 44 33 27 19 9 2 0 0 0 0 0 0 0 0 0 0 0 0 0 0 0 0 0 0
3 1 0 0 0 0 0 0 0 1 2 5 10 14 13 10 7 5 7 30 64 73 59 56 62 57 44 35 25 13 5 2 1 0 0 0 0 0 0 0 0 0 0 0 0 0 0 0 0
1 0 0 0 0 0 0 0 1 2 6 10 16 19 17 12 8 5 10 35 64 70 62 66 73 70 60 51 40 27 16 8 3 1 0 0 0 0 0 0 0 0 0 0 0 0 0 0 0
0 0 0 0 0 0 2 3 4 5 10 16 21 22 19 16 15 11 14 34 57 60 55 62 72 74 71 65 55 41 27 15 7 2 1 0 0 0 0 0 0 0 0 0 0 0 0 0 0
0 0 0 0 0 1 4 7 10 14 19 22 25 26 25 27 30 20 13 27 46 46 41 50 65 72 71 66 55 42 28 16 7 3 1 0 0 0 0 0 0 0 0 0 0 0 0 0 0
0 0 0 0 0 2 6 10 17 25 28 26 27 29 30 35 36 23 11 16 29 32 30 37 50 57 57 50 38 28 20 11 5 3 1 0 0 0 0 0 0 0 0 0 0 0 0 0 0
0 0 0 0 0 1 5 11 20 27 28 24 25 26 29 34 35 25 14 11 15 21 22 24 28 31 31 27 20 15 11 7 3 1 0 0 0 0 0 0 0 0 0 0 0 0 0 0 0
0 0 0 0 0 0 3 9 16 21 20 19 20 22 27 36 41 36 25 15 12 12 13 12 11 11 12 11 10 8 6 3 1 0 0 0 0 0 0 0 0 0 0 1 1 1 0 0 0
0 0 0 0 0 0 2 7 10 12 14 14 16 20 29 44 55 52 37 24 15 8 5 5 5 5 4 4 5 4 3 1 0 0 0 0 0 0 0 0 1 1 1 2 2 1 0 0 0
0 0 0 0 0 1 3 5 7 8 9 11 14 20 33 53 65 61 47 32 20 11 4 2 3 2 2 3 3 1 1 0 0 0 0 0 0 0 0 0 2 3 3 3 2 1 0 0 0
0 0 0 0 0 1 2 4 6 7 6 8 13 20 34 51 61 59 51 41 30 19 11 6 3 3 3 2 1 0 0 0 0 0 0 0 0 0 0 0 1 3 3 2 1 1 0 0 0
0 0 0 0 0 1 2 4 6 7 6 7 13 23 33 42 48 53 54 51 44 35 25 15 8 5 3 1 0 0 0 0 0 0 0 0 0 0 0 0 0 1 1 1 1 1 0 0 1
0 0 0 0 0 2 5 7 7 8 9 11 17 25 30 34 40 48 56 57 54 48 37 23 12 6 3 1 0 0 0 0 0 0 0 0 0 0 0 0 0 0 0 0 0 0 0 0 1
0 0 0 0 0 3 7 8 8 9 12 15 18 21 25 29 36 46 55 57 55 49 38 24 13 7 4 2 1 0 0 0 0 0 0 0 0 0 0 0 0 0 0 0 0 0 0 0 1
0 0 0 0 0 2 5 6 6 9 11 15 17 18 20 26 35 46 53 54 49 40 29 18 10 6 4 2 1 0 0 0 0 0 0 0 0 0 0 0 0 0 0 0 0 0 0 0 0
0 0 0 0 0 1 2 3 5 9 11 14 17 18 20 26 35 45 49 46 39 28 17 9 5 3 2 1 0 0 0 0 0 0 0 0 0 0 0 0 0 0 0 0 0 0 0 0 0
0 0 0 0 0 0 1 1 4 8 12 13 16 18 22 25 30 34 36 33 26 16 8 3 1 1 0 0 0 0 0 0 0 0 0 0 0 0 0 0 0 0 0 0 0 0 0 0 0
0 0 0 0 0 0 0 1 3 7 10 14 16 16 19 21 21 20 21 20 15 8 3 1 0 0 0 0 0 0 0 0 0 0 0 0 0 0 0 0 0 0 0 0 0 0 0 0 0
0 0 0 0 0 0 0 1 3 6 10 14 15 15 15 15 14 13 12 12 9 4 1 0 0 0 0 0 0 0 0 0 0 0 0 0 0 0 0 0 0 0 0 0 0 0 0 0 0
0 0 0 0 0 0 0 0 1 4 9 13 15 16 15 13 12 10 9 7 4 1 0 0 0 0 0 0 0 0 0 0 0 0 0 0 0 0 0 0 0 0 0 0 0 0 0 0 0
0 0 0 0 0 0 0 0 0 3 8 12 15 17 17 16 13 10 7 4 2 0 0 0 0 0 0 0 0 0 0 0 0 0 0 0 0 0 0 0 0 0 0 0 0 0 0 0 0
0 0 0 0 0 0 0 0 0 2 7 12 15 18 20 19 16 11 8 5 3 1 0 0 0 0 0 0 0 0 0 0 0 0 0 0 0 0 0 0 0 0 0 0 0 0 0 0 0
0 0 0 0 0 0 0 0 0 1 4 9 15 20 22 20 15 12 9 6 3 1 0 1 1 1 0 0 0 0 0 0 0 0 0 0 0 0 0 0 0 0 0 0 0 0 0 0 0
0 0 0 0 0 0 0 0 0 0 1 4 11 18 20 18 14 11 10 6 3 2 2 3 3 1 0 1 0 0 0 0 0 0 0 0 0 0 0 0 0 0 0 0 0 0 0 0 0
0 0 0 0 0 0 0 0 0 0 0 1 6 11 16 16 13 11 10 7 5 4 5 6 4 1 1 1 0 0 0 0 0 0 0 0 0 0 0 0 0 0 0 0 0 0 0 0 0
0 0 0 0 0 0 0 0 0 0 0 0 2 4 8 11 11 10 10 9 9 9 9 9 5 3 3 2 0 0 0 0 0 0 0 0 0 0 0 0 0 0 0 0 0 0 0 0 0
0 0 0 0 0 0 0 0 0 0 0 0 0 1 2 5 8 9 9 10 10 11 13 13 11 8 6 4 2 0 0 0 0 0 0 0 0 0 0 0 0 0 0 0 0 0 0 0 0
0 0 0 0 0 0 0 0 0 0 0 1 0 0 0 2 5 6 7 7 7 10 15 18 15 11 8 6 4 1 0 0 0 0 0 0 0 0 0 0 0 0 0 0 0 0 0 0 0
0 0 0 0 0 0 0 0 0 0 0 0 0 0 0 1 3 3 4 4 4 8 14 16 13 10 8 6 3 1 0 0 0 0 0 0 0 0 0 0 0 0 0 0 0 0 0 0 0
0 0 0 0 0 0 0 0 0 0 0 0 0 0 0 0 1 3 3 2 3 8 12 12 9 8 7 5 2 0 0 0 0 0 0 0 0 0 0 0 0 0 0 0 0 0 0 0 0
Wind_Speed
9 5 2 1 2 2 2 4 3 2 2 2 3 5 4 4 4 6 6 15 17 13 10 12 15 15 15 15 15 15 15 15 15 15 15 14 14 13 13 12 11 11 11 11 10 10 9 9 8
6 5 2 2 1 1 4 4 4 3 1 2 2 4 6 7 10 12 9 15 16 13 9 11 15 15 15 15 15 14 15 15 15 14 14 13 13 12 12 11 11 10 10 10 9 9 8 8 7
7 4 2 1 1 3 4 4 4 0 4 3 4 4 5 8 11 7 12 17 14 11 9 12 17 16 16 15 15 15 15 15 15 14 13 13 12 11 11 10 10 10 9 9 8 8 7 6 6
3 2 1 0 5 6 7 6 5 2 6 6 4 4 4 4 7 13 18 17 15 11 9 12 18 17 17 16 15 15 15 15 14 13 12 12 11 10 10 9 9 9 8 8 7 7 6 5 4
2 3 0 2 4 5 5 6 3 5 6 7 7 5 6 6 19 21 18 17 16 11 8 11 18 17 17 17 16 16 15 14 13 12 11 10 9 9 9 8 8 8 8 7 7 6 6 4 3
2 2 1 3 4 4 2 2 7 12 11 9 8 6 4 7 17 18 17 14 15 13 10 11 17 17 17 16 16 15 14 13 12 11 10 9 8 7 7 7 7 8 7 7 6 6 6 5 3
2 1 2 4 5 4 4 5 8 11 10 6 6 4 1 4 9 13 14 14 13 12 10 8 9 12 15 15 15 14 13 12 11 9 8 7 7 6 6 6 6 7 7 7 7 6 6 5 4
4 2 3 4 4 3 3 6 9 9 7 5 4 5 4 5 8 10 12 12 11 10 9 8 7 7 7 8 13 12 11 10 9 8 7 6 5 5 6 6 6 7 7 8 8 7 7 6 6
2 2 4 4 3 1 4 8 7 7 7 3 1 4 6 9 11 12 11 10 9 9 7 7 7 6 6 6 8 9 9 8 7 5 5 3 1 1 2 5 7 7 7 8 8 7 7 7 6
4 3 7 4 1 3 7 8 8 7 7 3 3 4 6 11 12 13 13 12 10 9 8 7 7 7 6 5 5 3 3 3 3 2 2 1 1 1 1 2 5 6 5 6 6 7 6 5 2
5 7 6 2 0 6 8 7 5 10 5 7 10 10 7 10 11 11 10 11 10 9 8 7 7 6 5 4 4 2 2 3 3 3 3 3 3 2 3 1 1 1 2 1 2 2 2 2 2
4 4 2 1 3 6 8 8 5 3 6 8 9 7 6 8 9 11 12 11 11 9 8 7 7 7 6 5 4 4 3 3 3 4 5 4 3 3 2 2 1 1 0 0 0 0 1 2 2
1 1 1 4 8 10 12 9 7 2 3 5 7 7 4 4 7 8 10 10 11 10 8 8 8 8 6 5 4 5 4 4 4 4 4 5 4 3 3 2 2 1 1 0 0 0 1 1 2
2 2 1 3 6 6 11 7 6 4 4 4 4 3 3 5 7 8 9 9 9 10 8 7 8 7 7 6 5 4 4 4 4 4 4 5 4 3 3 3 3 2 1 1 0 0 0 0 0
2 4 5 2 3 4 8 5 1 5 5 4 4 3 3 4 6 10 10 11 10 9 8 7 8 7 7 6 5 4 4 4 4 3 4 5 4 4 3 3 3 3 2 2 2 2 2 2 1
3 3 4 4 2 2 6 1 3 5 6 5 5 4 3 3 5 9 10 11 10 9 8 7 9 7 7 5 5 4 4 5 4 3 3 5 5 5 4 4 3 3 3 3 2 2 2 2 2
3 2 3 5 1 2 4 2 3 5 6 5 5 6 5 4 5 6 8 10 10 9 8 7 7 7 6 5 4 4 4 4 3 3 3 4 4 5 4 3 3 4 4 3 3 3 2 2 3
5 3 2 3 1 4 3 1 3 4 4 5 6 7 6 7 8 8 7 9 9 8 7 7 6 6 6 4 4 3 4 3 2 3 3 4 3 4 4 4 4 5 4 4 3 3 3 2 2
6 3 2 2 2 4 3 2 2 3 4 4 5 7 7 7 7 9 8 9 9 8 8 6 6 5 4 3 3 3 2 2 2 2 3 4 4 4 4 3 4 4 4 4 4 3 4 3 3
2 1 1 1 1 3 2 1 1 3 4 6 8 8 8 7 7 8 8 8 8 8 8 7 7 6 5 3 3 3 2 2 2 2 2 3 3 3 4 4 3 3 3 5 5 4 2 3 3
1 2 4 4 2 4 3 2 1 1 2 4 7 8 8 11 11 10 9 7 8 9 9 9 8 7 6 5 3 3 3 3 2 2 1 2 3 3 3 4 3 3 3 3 3 3 3 2 3
2 3 5 5 4 1 2 1 4 2 2 4 7 8 9 11 11 10 10 10 10 10 9 8 8 7 6 5 4 4 3 3 2 2 2 2 2 2 4 4 4 3 2 2 2 2 2 2 2
3 2 4 4 4 3 3 1 6 1 4 6 8 9 10 11 13 13 13 13 12 11 9 8 8 7 6 6 6 6 4 3 2 2 2 1 1 2 3 4 4 3 2 2 2 2 2 1 1
7 5 5 5 5 4 2 1 6 5 7 7 8 11 12 12 13 13 12 10 10 9 9 8 8 7 7 7 7 7 7 5 4 2 2 1 1 1 3 4 4 3 3 2 2 1 1 0 0
4 5 5 6 6 3 3 1 9 8 7 9 12 12 13 13 12 12 12 11 10 11 11 10 10 8 8 8 7 7 7 7 5 4 3 2 1 1 3 4 4 3 3 3 2 2 1 1 1
2 7 6 3 3 3 2 4 9 8 6 9 11 11 12 13 13 14 14 13 12 12 12 11 11 9 9 8 8 7 7 5 4 4 4 4 3 3 4 4 5 4 4 4 3 2 2 2 2
1 2 5 6 2 1 4 5 8 3 3 7 9 10 12 14 14 15 13 12 12 12 12 12 12 9 9 9 8 7 7 6 6 5 4 3 3 3 5 5 5 5 5 4 4 3 3 3 3
3 4 5 5 4 1 4 5 6 6 6 7 10 12 13 13 13 13 12 12 12 12 11 11 11 11 9 9 8 7 7 7 6 5 5 5 4 4 5 5 5 5 5 5 4 4 4 4 4
0 1 4 3 5 6 3 8 9 11 10 11 12 13 13 13 14 13 12 11 11 10 10 10 10 9 8 9 8 7 7 7 6 6 6 6 5 5 5 5 5 5 5 5 5 5 5 5 5
2 3 5 3 3 5 5 9 8 10 11 11 12 13 12 12 12 12 11 10 10 11 11 11 11 10 10 9 8 8 7 7 7 7 7 6 6 6 6 6 6 6 6 6 6 6 6 6 6
Wind_Direction
160 152 155 66 44 37 274 260 235 290 315 255 190 165 134 102 131 133 117 131 131 132 131 129 130 133 133 132 132 131 130 128 127 126 125 125 124 123 122 121 118 115 112 110 108 104 101 98 93
154 163 144 47 78 343 272 244 256 279 78 77 37 79 82 70 85 107 116 131 130 127 124 126 125 128 131 130 131 131 130 129 129 129 130 130 129 129 127 125 124 121 118 116 114 110 106 102 95
173 180 117 103 202 211 250 249 236 276 54 57 10 7 50 100 112 112 131 134 126 121 121 126 124 125 127 127 126 128 129 130 130 131 132 133 133 133 131 130 130 128 126 125 122 118 114 107 98
162 117 38 105 254 252 242 239 218 135 50 51 55 27 24 99 116 129 137 134 125 121 122 128 126 126 126 125 125 126 127 129 131 132 134 136 137 137 137 136 136 136 135 135 133 130 127 120 107
98 107 87 287 261 257 252 236 179 99 82 57 58 41 9 51 119 131 137 136 130 128 127 130 129 127 127 127 126 127 128 130 132 134 136 138 140 142 143 145 145 147 147 147 147 145 146 144 132
90 113 80 282 278 306 336 101 96 92 96 77 55 28 2 103 127 136 139 136 135 134 131 131 131 130 129 129 130 131 132 134 136 138 140 143 145 148 152 156 158 161 161 164 165 164 164 170 177
156 155 248 277 299 341 21 60 101 109 104 110 127 117 334 117 134 138 136 134 134 135 133 131 133 132 134 135 135 136 137 138 139 142 145 149 156 164 172 176 177 176 177 176 178 182 184 190 199
174 100 312 301 307 338 30 70 90 98 103 121 131 148 174 148 130 128 130 130 132 136 139 137 133 132 133 136 140 141 141 141 142 145 149 157 170 183 191 194 195 194 191 189 190 195 197 202 210
149 75 275 271 300 358 94 94 89 79 105 116 180 190 162 129 129 132 135 131 137 141 144 141 139 140 139 142 144 141 141 141 139 138 140 138 149 204 210 205 202 206 205 204 203 203 204 207 218
144 179 241 239 267 128 110 106 127 124 118 124 173 193 156 132 136 145 148 147 147 147 149 147 144 144 148 145 128 128 121 112 107 100 89 77 65 32 48 192 200 207 213 216 216 216 215 212 221
179 206 242 278 71 117 112 108 128 144 155 182 183 180 157 143 144 151 149 147 147 146 142 141 139 138 133 117 122 110 98 95 91 90 85 73 58 36 35 37 13 252 231 231 244 236 212 192 199
204 240 212 158 93 100 108 123 116 157 186 187 179 163 149 148 153 156 149 146 138 132 123 120 122 119 115 115 114 109 103 94 85 75 75 74 63 46 38 35 20 9 324 220 213 205 219 223 217
295 279 44 106 96 103 105 107 116 121 154 164 158 137 122 142 142 143 136 134 131 124 119 117 117 114 112 107 110 105 105 103 98 83 74 78 70 50 34 26 27 12 4 4 328 232 233 225 232
291 320 2 93 103 106 109 112 111 163 162 143 137 152 156 160 149 135 135 130 127 127 126 121 115 115 112 109 110 110 108 104 95 89 87 80 74 59 41 29 22 11 355 356 14 8 311 305 292
356 356 342 25 88 128 109 74 129 173 169 150 162 151 150 168 163 154 150 140 135 134 130 128 121 116 111 111 112 112 113 108 106 101 85 76 71 64 51 34 19 1 6 25 32 29 39 28 17
6 13 332 314 68 98 92 123 207 182 184 175 167 150 127 167 178 158 151 141 139 140 138 134 126 119 115 114 113 112 109 109 116 108 88 76 72 69 53 40 19 10 24 32 41 41 43 30 20
359 310 289 305 30 91 94 184 196 186 186 174 163 164 158 178 168 162 154 146 144 144 138 128 126 127 124 118 111 105 103 111 125 117 103 90 80 69 63 51 27 28 36 31 35 46 48 24 355
257 251 257 269 314 88 98 185 199 187 173 170 161 156 161 184 175 164 152 142 138 137 136 138 136 135 126 112 98 85 85 104 128 129 124 110 90 74 70 61 40 39 40 27 26 34 30 24 347
215 201 222 230 177 113 144 182 205 167 154 168 163 163 174 175 163 156 154 146 140 140 143 149 145 149 135 122 119 118 126 137 147 157 138 121 104 89 83 71 50 45 46 31 24 30 25 9 4
205 185 211 348 109 121 146 234 232 169 185 181 173 171 173 161 155 159 156 152 155 158 159 160 163 162 156 150 153 157 151 154 155 150 139 140 125 119 112 95 76 57 49 36 35 44 38 7 23
344 191 186 175 99 61 98 357 290 227 176 174 180 175 175 169 167 166 165 169 169 173 174 173 176 172 168 157 127 95 74 65 70 100 157 179 160 146 129 121 105 77 72 59 53 59 64 23 360
293 216 160 134 107 10 57 317 284 227 214 196 190 179 181 175 172 173 173 180 187 188 184 180 179 177 173 159 144 142 140 143 170 173 187 210 194 175 154 142 126 107 93 81 67 76 76 73 20
187 85 78 92 111 65 16 80 290 200 219 219 197 187 184 179 179 181 185 190 193 191 189 186 181 180 176 165 154 142 140 152 154 139 153 214 263 219 177 158 145 137 124 127 103 81 64 91 110
136 80 52 55 68 40 299 143 276 231 211 200 193 191 188 186 187 190 194 194 196 193 190 183 178 183 179 169 162 156 155 158 152 157 177 239 287 241 182 165 159 162 159 162 165 155 118 156 190
122 89 23 2 20 292 280 223 251 245 217 187 187 190 190 189 189 193 197 197 197 193 191 184 178 184 181 172 170 168 166 166 171 184 191 190 192 188 188 170 176 183 191 194 188 192 233 244 246
183 135 153 199 207 275 309 264 263 267 222 183 180 184 186 189 192 197 200 198 196 193 188 182 182 184 181 177 177 173 169 165 172 180 178 184 193 203 194 186 192 201 205 207 198 202 224 217 231
123 163 169 135 106 60 283 284 298 286 166 172 177 181 190 194 196 199 199 196 193 189 186 183 180 182 183 181 176 177 176 173 177 179 176 183 196 196 186 189 197 208 212 215 208 215 230 230 234
162 155 86 100 139 197 276 270 249 242 214 195 191 193 199 197 197 199 196 192 190 187 183 179 178 181 182 180 180 183 185 185 183 181 190 196 204 199 192 200 205 214 219 219 212 221 230 231 240
12 78 101 118 154 152 214 257 226 214 208 201 204 204 203 199 197 196 194 189 183 178 175 176 178 176 179 182 183 180 187 190 187 191 203 205 210 211 209 210 212 217 222 221 215 224 228 230 242
166 181 142 146 233 166 180 259 248 206 210 202 207 209 207 203 197 191 186 178 175 176 178 179 181 181 185 182 180 183 186 188 191 201 210 210 214 216 215 215 216 221 222 219 215 226 227 223 231